Ionia, MI

9:32 AM EDT on August 16, 2017 (GMT -0400)
Ionia

Weather History for KY70 - October, 2012

Change the Weather History Date:

Tuesday, October 16, 2012

  Actual Average (KGRR) Record (KGRR)
Temperature  
Mean Temperature 46 °F -  
Max Temperature 61 °F 59 °F 83 °F (1947)
Min Temperature 32 °F 40 °F 25 °F (1977)
Degree Days  
Heating Degree Days 18    
Moisture  
Dew Point 37 °F    
Average Humidity 70    
Maximum Humidity 99    
Minimum Humidity 40    
Precipitation  
Precipitation 0.00 in - - ()
Sea Level Pressure  
Sea Level Pressure 29.85 in    
Wind  
Wind Speed 5 mph (South)    
Max Wind Speed 14 mph    
Max Gust Speed 18 mph    
Visibility 10 miles    
Events Rain    
Averages and records for this station are not official NWS values.
T = Trace of Precipitation, MM = Missing Value Source: NWS Daily Summary

Daily Weather History Graph

Daily Weather History Graph

Search for Another Location

Airport or City:

Trip Planner

Search our weather history database for the weather conditions in past years. The results will help you decide how hot, cold, wet, or windy it might be!

Date:

Astronomy

Oct. 16, 2012 Rise Set
Actual Time 7:55 AM EDT 6:55 PM EDT
Civil Twilight 7:26 AM EDT 7:23 PM EDT
Nautical Twilight 6:53 AM EDT 7:56 PM EDT
Astronomical Twilight 6:21 AM EDT 8:29 PM EDT
Moon 9:20 AM EDT 7:35 PM EDT
Length of Visible Light 11h 56m
Length of Day
10h 59m
New Moon, 2% of the Moon is Illuminated
Oct 16
New Moon
Oct 21
First Quarter
Oct 29
Full
Nov 6
Last Quarter
Nov 13
New

Hourly Weather History & Observations

Time (EDT) Temp. Windchill Dew Point Humidity Pressure Visibility Wind Dir Wind Speed Gust Speed Precip Events Conditions
12:14 AM 45.1 °F 42.0 °F 35.6 °F 69% 29.96 in 10.0 mi NNW 5.8 mph - N/A   Overcast
12:34 AM 43.9 °F - 35.6 °F 73% 29.95 in 10.0 mi Calm Calm - N/A   Scattered Clouds
12:54 AM 42.8 °F - 35.6 °F 76% 29.95 in 10.0 mi Calm Calm - N/A   Clear
1:14 AM 41.0 °F - 35.4 °F 81% 29.95 in 10.0 mi Calm Calm - N/A   Clear
1:34 AM 38.8 °F 36.5 °F 34.9 °F 86% 29.95 in 10.0 mi West 3.5 mph - N/A   Clear
1:54 AM 38.5 °F 36.1 °F 34.9 °F 87% 29.95 in 10.0 mi West 3.5 mph - N/A   Clear
2:14 AM 36.1 °F - 33.4 °F 90% 29.95 in 10.0 mi Calm Calm - N/A   Clear
2:34 AM 37.9 °F 35.5 °F 34.9 °F 89% 29.95 in 10.0 mi West 3.5 mph - N/A   Clear
2:54 AM 36.3 °F - 33.8 °F 91% 29.95 in 10.0 mi Calm Calm - N/A   Clear
3:14 AM 35.6 °F - 33.6 °F 92% 29.95 in 10.0 mi Calm Calm - N/A   Clear
3:34 AM 36.9 °F 34.3 °F 34.7 °F 92% 29.95 in 10.0 mi West 3.5 mph - N/A   Clear
3:54 AM 35.2 °F - 33.8 °F 94% 29.94 in 10.0 mi Calm Calm - N/A   Clear
4:14 AM 34.9 °F 30.8 °F 33.3 °F 94% 29.94 in 10.0 mi SW 4.6 mph - N/A   Clear
4:34 AM 35.4 °F 32.6 °F 34.0 °F 94% 29.95 in 10.0 mi West 3.5 mph - N/A   Clear
4:54 AM 35.1 °F 31.0 °F 33.1 °F 92% 29.96 in 10.0 mi West 4.6 mph - N/A   Clear
5:14 AM 35.1 °F 31.0 °F 33.4 °F 94% 29.96 in 10.0 mi West 4.6 mph - N/A   Clear
5:34 AM 36.0 °F 33.3 °F 34.3 °F 94% 29.95 in 10.0 mi West 3.5 mph - N/A   Clear
5:54 AM 34.5 °F - 32.9 °F 94% 29.95 in 10.0 mi Calm Calm - N/A   Clear
6:34 AM 33.8 °F - 32.5 °F 95% 29.95 in 7.0 mi Calm Calm - N/A   Clear
6:54 AM 32.4 °F 29.1 °F 32.0 °F 99% 29.95 in 7.0 mi SSW 3.5 mph - N/A   Clear
7:14 AM 33.3 °F - 32.5 °F 97% 29.95 in 10.0 mi Calm Calm - N/A   Clear
7:34 AM 32.9 °F - 32.2 °F 97% 29.95 in 7.0 mi Calm Calm - N/A   Clear
8:14 AM 33.1 °F - 32.5 °F 98% 29.95 in 7.0 mi Calm Calm - N/A   Clear
8:34 AM 33.4 °F - 32.2 °F 95% 29.95 in 10.0 mi Calm Calm - N/A   Clear
8:54 AM 33.8 °F 30.8 °F 32.4 °F 94% 29.95 in 7.0 mi South 3.5 mph - N/A   Clear
9:14 AM 38.5 °F - 37.2 °F 95% 29.96 in 5.0 mi Calm Calm - N/A   Clear
9:34 AM 41.5 °F 38.6 °F 37.0 °F 84% 29.96 in 10.0 mi SSW 4.6 mph - N/A   Clear
9:54 AM 44.1 °F 40.8 °F 38.1 °F 80% 29.96 in 10.0 mi South 5.8 mph - N/A   Clear
10:14 AM 45.0 °F 41.8 °F 36.3 °F 72% 29.95 in 10.0 mi South 5.8 mph - N/A   Clear
10:34 AM 45.9 °F 41.7 °F 37.4 °F 72% 29.94 in 10.0 mi SSE 8.1 mph - N/A   Clear
10:54 AM 46.8 °F - 36.1 °F 67% 29.94 in 10.0 mi South 10.4 mph - N/A   Clear
11:14 AM 47.7 °F - 36.9 °F 66% 29.93 in 10.0 mi SSW 6.9 mph - N/A   Clear
11:34 AM 48.9 °F - 36.7 °F 63% 29.92 in 10.0 mi SSE 9.2 mph - N/A   Clear
11:54 AM 49.3 °F - 36.9 °F 62% 29.91 in 10.0 mi South 9.2 mph - N/A   Clear
12:14 PM 50.4 °F - 37.2 °F 61% 29.91 in 10.0 mi SSE 9.2 mph - N/A   Clear
12:34 PM 52.0 °F - 37.9 °F 59% 29.90 in 10.0 mi SSE 9.2 mph - N/A   Clear
12:54 PM 52.0 °F - 37.4 °F 58% 29.89 in 10.0 mi SSE 11.5 mph - N/A   Clear
1:14 PM 53.8 °F - 38.1 °F 55% 29.87 in 10.0 mi SSE 11.5 mph - N/A   Clear
1:34 PM 55.4 °F - 37.8 °F 52% 29.86 in 10.0 mi SSE 13.8 mph - N/A   Clear
1:54 PM 55.9 °F - 36.9 °F 49% 29.85 in 10.0 mi South 10.4 mph - N/A   Clear
2:14 PM 57.0 °F - 37.4 °F 48% 29.84 in 10.0 mi SSW 10.4 mph - N/A   Clear
2:34 PM 57.7 °F - 37.2 °F 46% 29.83 in 10.0 mi South 11.5 mph - N/A   Clear
2:54 PM 58.5 °F - 36.7 °F 44% 29.81 in 10.0 mi South 12.7 mph - N/A   Clear
3:14 PM 59.2 °F - 37.2 °F 44% 29.81 in 10.0 mi South 8.1 mph - N/A   Clear
3:34 PM 59.9 °F - 36.7 °F 42% 29.80 in 10.0 mi South 10.4 mph 16.1 mph N/A   Clear
3:54 PM 60.1 °F - 36.7 °F 42% 29.78 in 10.0 mi South 12.7 mph - N/A   Clear
4:14 PM 60.8 °F - 37.2 °F 42% 29.77 in 10.0 mi SSE 13.8 mph 18.4 mph N/A   Clear
4:34 PM 61.3 °F - 37.2 °F 41% 29.76 in 10.0 mi SSE 12.7 mph 18.4 mph N/A   Clear
4:54 PM 61.3 °F - 36.9 °F 40% 29.75 in 10.0 mi South 12.7 mph - N/A   Clear
5:14 PM 61.3 °F - 37.6 °F 41% 29.74 in 10.0 mi South 9.2 mph - N/A   Clear
5:34 PM 60.8 °F - 37.0 °F 41% 29.72 in 10.0 mi South 13.8 mph 18.4 mph N/A   Clear
5:54 PM 59.9 °F - 38.1 °F 44% 29.72 in 10.0 mi SSE 11.5 mph 15.0 mph N/A   Clear
6:14 PM 59.4 °F - 37.9 °F 45% 29.71 in 10.0 mi SSE 11.5 mph - N/A   Clear
6:34 PM 57.4 °F - 38.1 °F 49% 29.70 in 10.0 mi South 12.7 mph 17.3 mph N/A   Clear
6:54 PM 56.7 °F - 38.1 °F 50% 29.70 in 10.0 mi South 9.2 mph - N/A   Clear
7:14 PM 54.1 °F - 39.2 °F 57% 29.69 in 10.0 mi SSE 10.4 mph - N/A   Scattered Clouds
7:34 PM 54.9 °F - 39.7 °F 57% 29.68 in 10.0 mi SSE 11.5 mph 16.1 mph N/A   Mostly Cloudy
7:54 PM 55.0 °F - 39.9 °F 57% 29.69 in 10.0 mi SSE 8.1 mph - N/A   Mostly Cloudy
8:14 PM 54.9 °F - 40.1 °F 58% 29.70 in 10.0 mi SE 6.9 mph - N/A   Mostly Cloudy
8:34 PM 54.7 °F - 40.1 °F 58% 29.70 in 10.0 mi SE 5.8 mph - N/A   Overcast
8:54 PM 54.9 °F - 40.3 °F 58% 29.72 in 10.0 mi South 3.5 mph - N/A   Overcast
9:14 PM 53.8 °F - 41.4 °F 63% 29.72 in 10.0 mi SSE 3.5 mph - N/A Rain Light Rain
9:34 PM 51.3 °F - 44.6 °F 78% 29.70 in 10.0 mi SE 8.1 mph - N/A Rain Light Rain
9:54 PM 51.4 °F - 43.2 °F 73% 29.70 in 10.0 mi SSE 8.1 mph - N/A   Scattered Clouds
10:14 PM 51.4 °F - 42.8 °F 72% 29.69 in 10.0 mi SSE 8.1 mph - N/A   Scattered Clouds
10:34 PM 50.9 °F - 42.3 °F 72% 29.68 in 10.0 mi SSE 9.2 mph - N/A   Scattered Clouds
10:54 PM 50.9 °F - 41.9 °F 71% 29.68 in 10.0 mi SSE 8.1 mph - N/A   Clear
11:14 PM 51.3 °F - 42.8 °F 73% 29.68 in 10.0 mi SSE 9.2 mph - N/A   Scattered Clouds
11:34 PM 52.9 °F - 42.8 °F 69% 29.67 in 10.0 mi SSE 10.4 mph - N/A   Overcast
11:54 PM 53.6 °F - 42.8 °F 67% 29.67 in 10.0 mi SSE 8.1 mph - N/A   Overcast